BAW7T EGKK-ENBR

Flight info

Callsign BAW7T
Flight time 1h 40m
Altitude 37000
Route FRANE M604 GIVPO DCT GIBSU DCT ALOTI DCT ALUVA
Aircraft A320/M-SDE3FGHIRWY/LB1

Departure

Time 2026-05-08 08:01
Airport London Gatwick Airport (EGKK)

Arrival

Time 2026-05-08 09:42
Airport Bergen Airport, Flesland (ENBR)
Time Latitude Longitude Altitude Speed Heading
2026-05-08 07:43 51.15746 -0.16862 205 ft 0 kts 31°
2026-05-08 07:50 51.15744 -0.16864 205 ft 3 kts 31°
2026-05-08 07:50 51.15721 -0.16885 217 ft 4 kts 28°
2026-05-08 07:50 51.15697 -0.16904 217 ft 4 kts 20°
2026-05-08 07:51 51.15673 -0.16913 215 ft 4 kts 344°
2026-05-08 07:51 51.15663 -0.16903 211 ft 1 kts 257°
2026-05-08 07:51 51.15664 -0.16899 216 ft 0 kts 257°
2026-05-08 07:54 51.15662 -0.16910 216 ft 2 kts 257°
2026-05-08 07:54 51.15657 -0.16951 209 ft 5 kts 256°
2026-05-08 07:54 51.15647 -0.17020 211 ft 8 kts 260°
2026-05-08 07:54 51.15634 -0.17115 205 ft 10 kts 256°
2026-05-08 07:55 51.15614 -0.17235 214 ft 13 kts 255°
2026-05-08 07:55 51.15583 -0.17379 213 ft 15 kts 236°
2026-05-08 07:55 51.15521 -0.17431 208 ft 10 kts 172°
2026-05-08 07:55 51.15451 -0.17406 205 ft 10 kts 166°
2026-05-08 07:56 51.15371 -0.17384 208 ft 12 kts 172°
2026-05-08 07:56 51.15307 -0.17465 208 ft 14 kts 245°
2026-05-08 07:56 51.15279 -0.17618 205 ft 16 kts 257°
2026-05-08 07:56 51.15252 -0.17806 205 ft 19 kts 257°
2026-05-08 07:57 51.15220 -0.18024 205 ft 22 kts 257°
2026-05-08 07:57 51.15183 -0.18272 209 ft 24 kts 256°
2026-05-08 07:57 51.15157 -0.18551 211 ft 27 kts 255°
2026-05-08 07:57 51.15110 -0.18843 213 ft 27 kts 255°
2026-05-08 07:58 51.15063 -0.19146 205 ft 29 kts 256°
2026-05-08 07:58 51.15022 -0.19477 205 ft 32 kts 262°
2026-05-08 07:58 51.14984 -0.19834 214 ft 34 kts 258°
2026-05-08 07:58 51.14927 -0.20211 209 ft 36 kts 255°
2026-05-08 07:59 51.14876 -0.20608 205 ft 37 kts 260°
2026-05-08 07:59 51.14814 -0.21009 205 ft 33 kts 255°
2026-05-08 07:59 51.14762 -0.21210 209 ft 8 kts 217°
2026-05-08 07:59 51.14712 -0.21267 214 ft 10 kts 216°
2026-05-08 08:00 51.14645 -0.21330 205 ft 12 kts 196°
2026-05-08 08:00 51.14556 -0.21293 214 ft 15 kts 147°
2026-05-08 08:00 51.14520 -0.21142 206 ft 16 kts 73°
2026-05-08 08:00 51.14582 -0.20713 213 ft 74 kts 77°
2026-05-08 08:01 51.14739 -0.19589 209 ft 130 kts 78°
2026-05-08 08:01 51.14968 -0.17936 230 ft 172 kts 76°
2026-05-08 08:01 51.15281 -0.16120 867 ft 168 kts 73°
2026-05-08 08:01 51.15674 -0.14399 1566 ft 164 kts 70°
2026-05-08 08:02 51.16014 -0.12600 2026 ft 179 kts 83°
2026-05-08 08:02 51.16236 -0.10567 2394 ft 201 kts 84°
2026-05-08 08:02 51.16474 -0.08226 2816 ft 227 kts 83°
2026-05-08 08:02 51.16757 -0.05620 3363 ft 250 kts 82°
2026-05-08 08:03 51.16934 -0.02825 4210 ft 257 kts 95°
2026-05-08 08:03 51.16837 0.00118 4775 ft 281 kts 94°
2026-05-08 08:03 51.16757 0.03303 4921 ft 282 kts 93°
2026-05-08 08:03 51.16698 0.06337 4940 ft 268 kts 93°
2026-05-08 08:04 51.16646 0.09290 4940 ft 266 kts 93°
2026-05-08 08:04 51.16596 0.12232 4931 ft 265 kts 93°
2026-05-08 08:04 51.16550 0.15068 4921 ft 265 kts 93°
2026-05-08 08:04 51.16526 0.18010 4909 ft 265 kts 91°
2026-05-08 08:05 51.16533 0.20951 4898 ft 265 kts 91°
2026-05-08 08:05 51.16546 0.23890 4891 ft 265 kts 91°
2026-05-08 08:05 51.16559 0.26829 4881 ft 265 kts 91°
2026-05-08 08:05 51.16571 0.29773 4875 ft 266 kts 91°
2026-05-08 08:06 51.16580 0.32712 4872 ft 265 kts 91°
2026-05-08 08:06 51.16585 0.35653 4874 ft 265 kts 91°
2026-05-08 08:06 51.16588 0.38591 4871 ft 266 kts 91°
2026-05-08 08:06 51.16588 0.41536 4872 ft 266 kts 91°
2026-05-08 08:07 51.16588 0.44475 4875 ft 265 kts 91°
2026-05-08 08:07 51.16588 0.47420 4873 ft 265 kts 91°
2026-05-08 08:07 51.16692 0.50360 4873 ft 268 kts 78°
2026-05-08 08:07 51.17443 0.53071 4875 ft 270 kts 53°
2026-05-08 08:08 51.18819 0.55076 4875 ft 270 kts 29°
2026-05-08 08:08 51.20579 0.56085 4876 ft 270 kts 12°
2026-05-08 08:08 51.22415 0.56761 4876 ft 271 kts 12°
2026-05-08 08:08 51.24250 0.57437 4888 ft 271 kts 13°
2026-05-08 08:09 51.26083 0.58114 4895 ft 270 kts 13°
2026-05-08 08:09 51.27917 0.58792 4896 ft 270 kts 13°
2026-05-08 08:09 51.29727 0.59467 4915 ft 271 kts 13°
2026-05-08 08:09 51.31568 0.60157 5046 ft 275 kts 13°
2026-05-08 08:10 51.33449 0.60864 5872 ft 279 kts 13°
2026-05-08 08:10 51.35329 0.61568 6008 ft 276 kts 13°
2026-05-08 08:10 51.37197 0.62266 6030 ft 275 kts 13°
2026-05-08 08:10 51.39054 0.62961 6044 ft 275 kts 13°
2026-05-08 08:11 51.40945 0.63674 6765 ft 279 kts 13°
2026-05-08 08:11 51.42830 0.64387 7764 ft 280 kts 13°
2026-05-08 08:11 51.44736 0.65107 8698 ft 283 kts 12°
2026-05-08 08:11 51.46664 0.65842 9611 ft 286 kts 12°
2026-05-08 08:12 51.48621 0.66591 10357 ft 296 kts 11°
2026-05-08 08:12 51.50706 0.67381 10641 ft 320 kts 11°
2026-05-08 08:12 51.52936 0.68221 11073 ft 335 kts 12°
2026-05-08 08:12 51.55232 0.69090 11780 ft 342 kts 12°
2026-05-08 08:13 51.57566 0.69980 12529 ft 347 kts 12°
2026-05-08 08:13 51.59933 0.70886 13311 ft 352 kts 12°
2026-05-08 08:13 51.62331 0.71801 14067 ft 357 kts 13°
2026-05-08 08:13 51.64765 0.72727 14740 ft 362 kts 12°
2026-05-08 08:14 51.67232 0.73666 15418 ft 366 kts 13°
2026-05-08 08:14 51.69724 0.74618 16086 ft 371 kts 13°
2026-05-08 08:14 51.72252 0.75587 16743 ft 376 kts 13°
2026-05-08 08:14 51.74812 0.76571 17377 ft 380 kts 13°
2026-05-08 08:15 51.77401 0.77566 18021 ft 385 kts 13°
2026-05-08 08:15 51.80009 0.78724 18622 ft 391 kts 20°
2026-05-08 08:15 51.82484 0.80568 19228 ft 394 kts 30°
2026-05-08 08:15 51.84743 0.83107 19883 ft 397 kts 40°
2026-05-08 08:16 51.86805 0.86103 20559 ft 400 kts 43°
2026-05-08 08:16 51.88875 0.89131 21232 ft 403 kts 42°
2026-05-08 08:16 51.90970 0.92173 21886 ft 406 kts 42°
2026-05-08 08:16 51.93080 0.95228 22535 ft 409 kts 41°
2026-05-08 08:17 51.95180 0.98271 23143 ft 412 kts 41°
2026-05-08 08:17 51.97330 1.01392 23723 ft 416 kts 41°
2026-05-08 08:17 51.99491 1.04540 24218 ft 420 kts 41°
2026-05-08 08:17 52.01667 1.07726 24724 ft 423 kts 42°
2026-05-08 08:18 52.03856 1.10934 25217 ft 426 kts 42°
2026-05-08 08:18 52.06138 1.14031 25713 ft 429 kts 36°
2026-05-08 08:18 52.08532 1.16945 26194 ft 432 kts 36°
2026-05-08 08:18 52.10942 1.19880 26676 ft 435 kts 36°
2026-05-08 08:19 52.13360 1.22880 27155 ft 438 kts 38°
2026-05-08 08:19 52.15738 1.25999 27624 ft 441 kts 39°
2026-05-08 08:19 52.18099 1.29222 28090 ft 444 kts 40°
2026-05-08 08:19 52.20455 1.32499 28550 ft 447 kts 40°
2026-05-08 08:20 52.22825 1.35803 28993 ft 450 kts 40°
2026-05-08 08:20 52.25217 1.39118 29426 ft 453 kts 40°
2026-05-08 08:20 52.27632 1.42445 29850 ft 455 kts 40°
2026-05-08 08:20 52.30065 1.45784 30235 ft 459 kts 39°
2026-05-08 08:21 52.32518 1.49138 30557 ft 461 kts 39°
2026-05-08 08:21 52.34873 1.52730 30880 ft 464 kts 45°
2026-05-08 08:21 52.37131 1.56501 31309 ft 464 kts 45°
2026-05-08 08:21 52.39383 1.60275 31785 ft 463 kts 45°
2026-05-08 08:22 52.41632 1.64060 32259 ft 462 kts 45°
2026-05-08 08:22 52.43869 1.67832 32738 ft 461 kts 45°
2026-05-08 08:22 52.46105 1.71607 33214 ft 461 kts 42°
2026-05-08 08:22 52.48348 1.75363 33687 ft 460 kts 45°
2026-05-08 08:23 52.50577 1.79127 34155 ft 459 kts 45°
2026-05-08 08:23 52.52795 1.82898 34561 ft 459 kts 45°
2026-05-08 08:23 52.55010 1.86677 34940 ft 459 kts 45°
2026-05-08 08:23 52.57226 1.90462 35317 ft 459 kts 45°
2026-05-08 08:24 52.59411 1.94195 35682 ft 459 kts 45°
2026-05-08 08:24 52.61633 1.97988 36044 ft 460 kts 45°
2026-05-08 08:24 52.63852 2.01775 36402 ft 460 kts 45°
2026-05-08 08:24 52.66073 2.05569 36734 ft 460 kts 45°
2026-05-08 08:25 52.68297 2.09372 37045 ft 461 kts 45°
2026-05-08 08:25 52.72774 2.17048 37142 ft 465 kts 45°
2026-05-08 08:26 52.77249 2.24765 37144 ft 466 kts 45°
2026-05-08 08:26 52.81723 2.32512 37144 ft 466 kts 45°
2026-05-08 08:27 52.86194 2.40264 37146 ft 466 kts 45°
2026-05-08 08:27 52.90665 2.48032 37147 ft 466 kts 45°
2026-05-08 08:28 52.95098 2.55768 37138 ft 466 kts 45°
2026-05-08 08:28 52.99955 2.62809 37153 ft 463 kts 31°
2026-05-08 08:29 53.05642 2.67785 37154 ft 462 kts 25°
2026-05-08 08:29 53.11400 2.72545 37152 ft 462 kts 25°
2026-05-08 08:30 53.17164 2.77319 37148 ft 463 kts 25°
2026-05-08 08:30 53.25812 2.84514 37158 ft 463 kts 21°
2026-05-08 08:31 53.31979 2.87246 37157 ft 457 kts
2026-05-08 08:31 53.38323 2.87927 37156 ft 457 kts
2026-05-08 08:32 53.44670 2.88605 37154 ft 457 kts
2026-05-08 08:32 53.50977 2.89293 37154 ft 457 kts
2026-05-08 08:33 53.57325 2.89968 37158 ft 457 kts
2026-05-08 08:33 53.63674 2.90640 37153 ft 457 kts
2026-05-08 08:34 53.70026 2.91326 37152 ft 457 kts
2026-05-08 08:34 53.76383 2.92025 37159 ft 458 kts
2026-05-08 08:35 53.82743 2.92713 37173 ft 458 kts
2026-05-08 08:35 53.89102 2.93404 37171 ft 458 kts
2026-05-08 08:36 53.94393 2.93981 37181 ft 458 kts
2026-05-08 08:36 54.00753 2.94666 37189 ft 458 kts
2026-05-08 08:37 54.07114 2.95348 37190 ft 458 kts
2026-05-08 08:37 54.13477 2.96052 37187 ft 458 kts
2026-05-08 08:38 54.19832 2.96767 37186 ft 457 kts
2026-05-08 08:38 54.26188 2.97471 37195 ft 458 kts
2026-05-08 08:39 54.32543 2.98168 37187 ft 458 kts
2026-05-08 08:39 54.38858 2.98854 37184 ft 458 kts
2026-05-08 08:40 54.45223 2.99570 37186 ft 458 kts
2026-05-08 08:40 54.51587 3.00298 37193 ft 458 kts
2026-05-08 08:41 54.57953 3.01003 37196 ft 458 kts
2026-05-08 08:41 54.64325 3.01716 37191 ft 458 kts
2026-05-08 08:42 54.70691 3.02442 37193 ft 458 kts
2026-05-08 08:42 54.77056 3.03171 37199 ft 458 kts
2026-05-08 08:43 54.83388 3.03884 37196 ft 458 kts
2026-05-08 08:43 54.89794 3.04610 37195 ft 458 kts
2026-05-08 08:44 54.96117 3.05333 37196 ft 458 kts
2026-05-08 08:44 55.02484 3.06063 37196 ft 458 kts
2026-05-08 08:45 55.08853 3.06798 37195 ft 459 kts
2026-05-08 08:45 55.15223 3.07537 37190 ft 459 kts
2026-05-08 08:46 55.21595 3.08271 37192 ft 459 kts
2026-05-08 08:46 55.27968 3.09006 37196 ft 459 kts
2026-05-08 08:47 55.34341 3.09751 37194 ft 459 kts
2026-05-08 08:47 55.40718 3.10497 37192 ft 459 kts
2026-05-08 08:48 55.47093 3.11245 37189 ft 459 kts
2026-05-08 08:48 55.53476 3.12010 37199 ft 460 kts
2026-05-08 08:49 55.59860 3.12768 37191 ft 460 kts
2026-05-08 08:49 55.66243 3.13510 37190 ft 460 kts
2026-05-08 08:50 55.72594 3.14257 37187 ft 460 kts
2026-05-08 08:50 55.78987 3.15017 37195 ft 460 kts
2026-05-08 08:51 55.85381 3.15792 37189 ft 461 kts
2026-05-08 08:51 55.91784 3.16565 37189 ft 461 kts
2026-05-08 08:52 55.98184 3.17339 37189 ft 461 kts
2026-05-08 08:52 56.04588 3.18126 37190 ft 461 kts
2026-05-08 08:53 56.10994 3.18895 37186 ft 461 kts
2026-05-08 08:53 56.17401 3.19651 37188 ft 461 kts
2026-05-08 08:54 56.23807 3.20418 37189 ft 461 kts
2026-05-08 08:54 56.30221 3.21221 37198 ft 462 kts
2026-05-08 08:55 56.36635 3.22009 37194 ft 462 kts
2026-05-08 08:55 56.43054 3.22810 37192 ft 463 kts
2026-05-08 08:56 56.49436 3.23623 37192 ft 463 kts
2026-05-08 08:56 56.55871 3.24422 37201 ft 463 kts
2026-05-08 08:57 56.62306 3.25185 37197 ft 463 kts
2026-05-08 08:57 56.68744 3.25990 37195 ft 464 kts
2026-05-08 08:58 56.75176 3.26806 37194 ft 464 kts
2026-05-08 08:58 56.81608 3.28115 37200 ft 465 kts
2026-05-08 08:59 56.87998 3.30114 37193 ft 466 kts
2026-05-08 08:59 56.94388 3.32169 37194 ft 466 kts
2026-05-08 09:00 57.00797 3.34069 37194 ft 466 kts
2026-05-08 09:00 57.07210 3.35903 37204 ft 467 kts
2026-05-08 09:01 57.13588 3.37739 37194 ft 467 kts
2026-05-08 09:01 57.20010 3.39623 37191 ft 468 kts
2026-05-08 09:02 57.26441 3.41517 37190 ft 468 kts
2026-05-08 09:02 57.32873 3.43422 37190 ft 468 kts
2026-05-08 09:03 57.39315 3.45336 37194 ft 469 kts
2026-05-08 09:03 57.45767 3.47267 37189 ft 470 kts
2026-05-08 09:04 57.52220 3.49194 37191 ft 470 kts
2026-05-08 09:04 57.58680 3.51121 37189 ft 470 kts
2026-05-08 09:05 57.65147 3.53061 37196 ft 471 kts
2026-05-08 09:05 57.71623 3.55017 37181 ft 471 kts
2026-05-08 09:06 57.78098 3.56969 37170 ft 472 kts
2026-05-08 09:06 57.84576 3.58949 37186 ft 472 kts
2026-05-08 09:07 57.91013 3.61400 37175 ft 473 kts 18°
2026-05-08 09:07 57.97050 3.66353 37161 ft 474 kts 25°
2026-05-08 09:08 58.03040 3.71637 37155 ft 475 kts 25°
2026-05-08 09:08 58.09045 3.76920 37156 ft 477 kts 25°
2026-05-08 09:09 58.15056 3.82245 37169 ft 477 kts 25°
2026-05-08 09:09 58.21076 3.87611 37158 ft 478 kts 25°
2026-05-08 09:10 58.27104 3.93005 37169 ft 479 kts 25°
2026-05-08 09:10 58.33099 3.98386 37180 ft 480 kts 25°
2026-05-08 09:11 58.39139 4.03836 37182 ft 480 kts 25°
2026-05-08 09:11 58.45188 4.09300 37192 ft 481 kts 25°
2026-05-08 09:12 58.51239 4.14783 37183 ft 481 kts 25°
2026-05-08 09:12 58.57295 4.20280 37179 ft 482 kts 25°
2026-05-08 09:13 58.63357 4.25809 37188 ft 482 kts 25°
2026-05-08 09:13 58.69414 4.31364 37205 ft 482 kts 25°
2026-05-08 09:14 58.75464 4.36968 37196 ft 482 kts 26°
2026-05-08 09:14 58.81515 4.42578 37181 ft 482 kts 26°
2026-05-08 09:15 58.87567 4.48193 37196 ft 482 kts 26°
2026-05-08 09:15 58.93614 4.53811 37169 ft 482 kts 26°
2026-05-08 09:16 58.96646 4.56640 36306 ft 488 kts 26°
2026-05-08 09:16 58.99729 4.59527 35265 ft 497 kts 27°
2026-05-08 09:16 59.02858 4.62469 34311 ft 501 kts 27°
2026-05-08 09:16 59.05999 4.65433 33449 ft 501 kts 27°
2026-05-08 09:17 59.09087 4.68349 32617 ft 500 kts 27°
2026-05-08 09:17 59.12206 4.71295 31892 ft 496 kts 27°
2026-05-08 09:17 59.15295 4.74214 31270 ft 491 kts 27°
2026-05-08 09:17 59.18351 4.77110 30696 ft 486 kts 27°
2026-05-08 09:18 59.21374 4.79984 30122 ft 480 kts 26°
2026-05-08 09:18 59.24359 4.82828 29483 ft 475 kts 26°
2026-05-08 09:18 59.27319 4.85651 28809 ft 471 kts 26°
2026-05-08 09:18 59.30256 4.88458 28167 ft 467 kts 26°
2026-05-08 09:19 59.33163 4.91243 27557 ft 463 kts 26°
2026-05-08 09:19 59.36069 4.93882 26958 ft 458 kts 20°
2026-05-08 09:19 59.39108 4.95610 26389 ft 452 kts
2026-05-08 09:19 59.42213 4.96266 25825 ft 446 kts 359°
2026-05-08 09:20 59.45285 4.95944 25264 ft 440 kts 352°
2026-05-08 09:20 59.48327 4.95433 24724 ft 437 kts 352°
2026-05-08 09:20 59.51344 4.94934 24221 ft 433 kts 352°
2026-05-08 09:20 59.54336 4.94448 23709 ft 430 kts 352°
2026-05-08 09:21 59.57306 4.93963 23137 ft 427 kts 352°
2026-05-08 09:21 59.60255 4.93483 22605 ft 423 kts 352°
2026-05-08 09:22 59.76514 4.90830 19855 ft 405 kts 352°
2026-05-08 09:23 59.79309 4.90315 19376 ft 402 kts 351°
2026-05-08 09:23 59.82068 4.89639 18900 ft 398 kts 349°
2026-05-08 09:23 59.84801 4.88852 18397 ft 395 kts 348°
2026-05-08 09:23 59.87509 4.88016 17725 ft 394 kts 348°
2026-05-08 09:24 59.90222 4.87165 17022 ft 395 kts 348°
2026-05-08 09:24 59.92932 4.86330 16336 ft 395 kts 348°
2026-05-08 09:24 59.95648 4.85523 15661 ft 394 kts 348°
2026-05-08 09:24 59.98359 4.84742 15000 ft 393 kts 348°
2026-05-08 09:25 60.01061 4.83976 14366 ft 391 kts 349°
2026-05-08 09:25 60.03752 4.83215 13701 ft 390 kts 349°
2026-05-08 09:25 60.06430 4.82452 12999 ft 387 kts 348°
2026-05-08 09:25 60.09088 4.81690 12315 ft 385 kts 348°
2026-05-08 09:26 60.11699 4.80939 11652 ft 382 kts 349°
2026-05-08 09:26 60.14314 4.80187 10995 ft 378 kts 348°
2026-05-08 09:26 60.16910 4.79437 10346 ft 375 kts 349°
2026-05-08 09:26 60.19480 4.78689 9670 ft 372 kts 349°
2026-05-08 09:27 60.22029 4.77945 8971 ft 368 kts 349°
2026-05-08 09:27 60.24557 4.77207 8283 ft 366 kts 348°
2026-05-08 09:27 60.27069 4.76469 7605 ft 363 kts 349°
2026-05-08 09:27 60.29558 4.75739 6947 ft 360 kts 350°
2026-05-08 09:28 60.32033 4.75018 6277 ft 358 kts 350°
2026-05-08 09:28 60.34493 4.74299 5590 ft 357 kts 351°
2026-05-08 09:28 60.36936 4.73587 5131 ft 350 kts 351°
2026-05-08 09:28 60.39291 4.72899 5006 ft 334 kts 351°
2026-05-08 09:29 60.41470 4.71810 5024 ft 313 kts 338°
2026-05-08 09:29 60.43475 4.70361 5027 ft 298 kts 337°
2026-05-08 09:29 60.45392 4.69065 5024 ft 285 kts 344°
2026-05-08 09:29 60.47314 4.68634 5023 ft 272 kts 359°
2026-05-08 09:30 60.49168 4.68652 5022 ft 264 kts 359°
2026-05-08 09:30 60.51006 4.68720 5023 ft 266 kts
2026-05-08 09:30 60.52798 4.69512 5025 ft 263 kts 21°
2026-05-08 09:30 60.54509 4.70798 5023 ft 262 kts 21°
2026-05-08 09:31 60.56198 4.72087 5017 ft 263 kts 25°
2026-05-08 09:31 60.57772 4.73946 5015 ft 260 kts 41°
2026-05-08 09:31 60.59146 4.76293 5000 ft 256 kts 44°
2026-05-08 09:31 60.60501 4.78636 5008 ft 254 kts 45°
2026-05-08 09:32 60.61673 4.81278 5016 ft 249 kts 61°
2026-05-08 09:32 60.62501 4.84321 5015 ft 244 kts 73°
2026-05-08 09:32 60.62845 4.87587 5014 ft 232 kts 98°
2026-05-08 09:32 60.62514 4.90702 5017 ft 221 kts 122°
2026-05-08 09:33 60.61645 4.93173 5012 ft 211 kts 143°
2026-05-08 09:33 60.60429 4.94718 4697 ft 204 kts 163°
2026-05-08 09:33 60.59076 4.95533 4367 ft 202 kts 166°
2026-05-08 09:33 60.57728 4.96336 4089 ft 200 kts 165°
2026-05-08 09:34 60.56397 4.97138 4021 ft 200 kts 165°
2026-05-08 09:34 60.55058 4.97944 4021 ft 201 kts 165°
2026-05-08 09:34 60.53716 4.98751 4025 ft 201 kts 165°
2026-05-08 09:34 60.52390 4.99546 4024 ft 201 kts 165°
2026-05-08 09:35 60.51048 5.00356 4024 ft 201 kts 165°
2026-05-08 09:35 60.49738 5.01367 4024 ft 204 kts 151°
2026-05-08 09:35 60.48717 5.03369 3810 ft 209 kts 127°
2026-05-08 09:35 60.48223 5.06189 3504 ft 218 kts 107°
2026-05-08 09:36 60.47962 5.09199 3237 ft 214 kts 107°
2026-05-08 09:36 60.47578 5.11996 3131 ft 198 kts 122°
2026-05-08 09:36 60.46848 5.14203 3045 ft 181 kts 139°
2026-05-08 09:36 60.45904 5.15714 3044 ft 167 kts 154°
2026-05-08 09:37 60.44876 5.16547 3030 ft 153 kts 168°
2026-05-08 09:37 60.43854 5.16910 2887 ft 145 kts 171°
2026-05-08 09:37 60.42895 5.17236 2725 ft 136 kts 171°
2026-05-08 09:37 60.41979 5.17547 2546 ft 131 kts 171°
2026-05-08 09:38 60.41109 5.17842 2400 ft 122 kts 171°
2026-05-08 09:38 60.40277 5.18124 2234 ft 119 kts 171°
2026-05-08 09:38 60.39472 5.18397 2067 ft 117 kts 172°
2026-05-08 09:38 60.38669 5.18668 1901 ft 117 kts 172°
2026-05-08 09:39 60.37861 5.18941 1747 ft 118 kts 172°
2026-05-08 09:39 60.37053 5.19214 1576 ft 118 kts 171°
2026-05-08 09:39 60.36256 5.19483 1407 ft 115 kts 172°
2026-05-08 09:39 60.35470 5.19748 1235 ft 114 kts 170°
2026-05-08 09:40 60.34693 5.20010 1072 ft 113 kts 169°
2026-05-08 09:40 60.33900 5.20277 920 ft 121 kts 171°
2026-05-08 09:40 60.33060 5.20560 746 ft 124 kts 171°
2026-05-08 09:40 60.32221 5.20843 578 ft 124 kts 170°
2026-05-08 09:41 60.31374 5.21128 412 ft 124 kts 171°
2026-05-08 09:41 60.30526 5.21414 249 ft 124 kts 171°
2026-05-08 09:41 60.29737 5.21676 147 ft 76 kts 171°
2026-05-08 09:41 60.29330 5.21824 156 ft 51 kts 170°
2026-05-08 09:42 60.29018 5.21920 163 ft 40 kts 169°
2026-05-08 09:42 60.28914 5.22107 165 ft 15 kts 74°
2026-05-08 09:42 60.28921 5.22156 167 ft 1 kts 77°
2026-05-08 09:42 60.28922 5.22179 168 ft 0 kts 85°
2026-05-08 09:43 60.28923 5.22198 169 ft 2 kts 85°
2026-05-08 09:43 60.28927 5.22245 170 ft 6 kts 78°
2026-05-08 09:43 60.28937 5.22320 173 ft 3 kts 75°
2026-05-08 09:43 60.28946 5.22375 175 ft 6 kts 71°
2026-05-08 09:44 60.28944 5.22467 175 ft 7 kts 106°
2026-05-08 09:44 60.28931 5.22553 175 ft 0 kts 107°
2026-05-08 09:44 60.28930 5.22554 175 ft 0 kts 107°